CZ-3B DEB, 40162

Orbit data source: Space-Track

CZ-3B DEB, 40162 is space debris originally from a launch on Sat, 04 Sep 2010 UTC launched from the Xichang Space Center, China (XSC). Debris objects in space refer to the collection of defunct objects orbiting the Earth. Examples of debris include non-operational satellites, rocket bodies, and fragments generated from explosions, collisions, or faulty payload assembly.

Loading next visibility...
CZ-3B DEB details
Identifier
40162, 2010-042P
Orbit
Molniya
Last TLE update2 days ago
Origin
Flag of CNCASC (CN / PRC)
ManufacturerCALT
MissionSpacecraft
Bus & MotorUnknown
MassUnknown
Launch date (UTC)
2010-09-04 (14 years ago)
Launch vehicleUnknown
Launch site
Xichang Space Center, China (XSC)
Object type
Payload
Rocket body
Debris
Shape & HBRUnknown
Radar Cross SectionMedium (>0.1 m² and <1 m²)

Expand to show TLE details & history

TLE from 2 days ago
0 CZ-3B DEB
1 40162U 10042P   24347.53278846 -.00000034  00000-0  00000+0 0  9990
2 40162  27.2468  27.7020 7208989 138.3896 307.7044  1.92044263 84832
Epoch: 2024-12-12T12:47Z
Definitive object data (Epoch: 2024-12-12T12:47:12.922Z)
Latitude-0.00001°
Longitude114.18641°
Altitude22,142.68 km
Speed3.657 km/s
True Right ascension01h 50m 48s
True Declination0° 00' 00"
Sunlit
Object was in daylight at TLE epoch
Visualization TLE readout
Latitude17.80706°
Longitude152.25319°
Altitude8,116.44 km
Speed6.358 km/s
Apparent Right ascension05h 27m 49s
Apparent Declination1° 57' 25"
Sunlit
Object is in full shadow
Visualization observer readout
Local Sidereal Time02:00:46
Azimuth115.278° SE
Elevation29.758°
Doppler factor1
Orbital elements
Apogee altitude40,677.242 km
Perigee altitude1,253.461 km
Semi-major axis27,343.488 km
Eccentricity0.7208989
Inclination27.2468°
RAAN27.702°
Arg. of periapsis138.3896°
True anomaly221.48285°
Mean anomaly307.7044°
Eccentric anomaly266.47795°
Mean motion0.48002 °/min
BSTARUnknown
Orbital period749.96 mins
Loading maneuver chart data...
Loading historical data...
Loading historical data...
Loading historical data...
Loading historical data...
Loading historical data...
Loading historical data...
Loading historical data...

CZ-3B DEB Visibility forecast

Observer location: undefined°, undefined

Span
Click to sort rows by Start time (UTC) header in descending order
Start Az.
Max El. time (UTC)
Max El. Az.
Max El.
End time (UTC)
End Az.
12 mins2024-12-14 03:28:02.532Z115.34° SE2024-12-14 03:28:02.532Z115.34° SE26.373°2024-12-14 03:40:02.532Z95.721° ESE
370 mins2024-12-14 21:18:02.532Z140.192° SSE2024-12-15 03:28:02.532Z179.609° S33.828°2024-12-15 03:28:02.532Z179.609° S
|